• MPC Preparation (Info)

  • MPEC 2016-T15 : 2016 TH

    The following Minor Planet Electronic Circular may be linked-to from your own Web pages, but must not otherwise be redistributed electronically.

    A form allowing access to any MPEC is at the bottom of this page.


    Read MPEC 2016-T14 Read MPEC 2016-T16


    M.P.E.C. 2016-T15                                Issued 2016 Oct. 3, 03:05 UT
    
         The Minor Planet Electronic Circulars contain information on unusual
             minor planets and routine data on comets.  They are published
        on behalf of Division F of the International Astronomical Union by the
              Minor Planet Center, Smithsonian Astrophysical Observatory,
                              Cambridge, MA 02138, U.S.A.
    
                 Prepared using the Tamkin Foundation Computer Network
    
                                  MPC@CFA.HARVARD.EDU
                URL https://www.minorplanetcenter.net/    ISSN 1523-6714
    
                                        2016 TH
    
    Observations:
         K16T00H* C2016 10 02.19582 00 33 10.50 +15 03 11.8          19.3 VqET015G96
         K16T00H  C2016 10 02.19883 00 33 06.01 +15 03 44.2          19.0 VqET015G96
         K16T00H  C2016 10 02.20184 00 33 01.51 +15 04 15.9          19.1 VqET015G96
         K16T00H  C2016 10 02.20485 00 32 56.93 +15 04 47.8          19.1 VqET015G96
         K16T00H  C2016 10 02.21359 00 32 43.53 +15 06 20.9          18.8 VqET015G96
         K16T00H  C2016 10 02.21938 00 32 34.45 +15 07 22.9          19.1 VqET015G96
         K16T00H  C2016 10 02.22517 00 32 25.27 +15 08 24.7          18.9 VqET015G96
         K16T00H  C2016 10 02.23095 00 32 16.24 +15 09 24.9                qET015G96
         K16T00H  C2016 10 02.24217200 31 52.30 +15 10 57.7          19.2 VtET015H01
         K16T00H  C2016 10 02.24879000 31 41.21 +15 12 08.0          20.0 VtET015H01
         K16T00H  C2016 10 02.24984 00 31 44.77 +15 12 49.8          19.1 VqET015I52
         K16T00H  C2016 10 02.25108 00 31 42.70 +15 13 03.2          19.2 VqET015I52
         K16T00H  C2016 10 02.25171 00 31 41.63 +15 13 09.8          19.1 VqET015I52
         K16T00H  C2016 10 02.25294 00 31 39.54 +15 13 23.3          18.9 VqET015I52
         K16T00H  C2016 10 02.26333200 31 16.38 +15 14 42.5          19.8 VtET015H01
         K16T00H  C2016 10 02.26801700 31 08.24 +15 15 32.5          19.5 VtET015H01
         K16T00H  C2016 10 02.32285 00 29 33.80 +15 26 00.2          18.9 VqET015G96
         K16T00H  C2016 10 02.33189 00 29 16.61 +15 27 38.4          19.0 VqET015G96
         K16T00H  C2016 10 02.34088 00 28 59.35 +15 29 16.7          18.9 VqET015G96
         K16T00H  C2016 10 02.34992 00 28 41.89 +15 30 55.0          18.8 VqET015G96
         K16T00H  C2016 10 02.37836 00 27 46.03 +15 36 06.5          18.7 VqET015G96
         K16T00H  C2016 10 02.38752 00 27 27.82 +15 37 47.2          18.7 VqET015G96
         K16T00H  C2016 10 02.39677 00 27 09.44 +15 39 28.8          18.6 VqET015G96
         K16T00H KC2016 10 02.76082 00 16 55.88 +17 12 15.2          18.3 V ET015L04
         K16T00H KC2016 10 02.76400 00 16 45.83 +17 13 33.4          18.3 V ET015L04
         K16T00H KC2016 10 02.78496 00 15 36.66 +17 22 19.4          18.2 V ET015L04
         K16T00H KC2016 10 02.81354400 14 17.93 +17 29 58.4                qET015J95
         K16T00H KC2016 10 02.81654300 14 07.59 +17 31 19.5                qET015J95
         K16T00H KC2016 10 02.81894400 13 59.22 +17 32 24.7          18.0 RqET015J95
         K16T00H KC2016 10 02.84787 00 12 10.83 +17 50 39.7          18.4 VqET015C77
         K16T00H KC2016 10 02.84895 00 12 09.06 +17 46 44.7          18.2 VqET015J69
         K16T00H KC2016 10 02.85108 00 11 57.90 +17 52 12.7          18.1 VqET015C77
         K16T00H KC2016 10 02.85247 00 11 55.34 +17 48 26.2          17.9 VqET015J69
         K16T00H KC2016 10 02.85437 00 11 44.52 +17 53 49.3          18.1 VqET015C77
         K16T00H KC2016 10 02.86268 00 11 14.76 +17 53 23.9          18.0 VqET015J69
         K16T00H KC2016 10 02.86621 00 11 00.43 +17 55 08.3          18.1 VqET015J69
         K16T00H KC2016 10 02.97888 00 01 53.15 +19 01 26.7          17.9 VqET015958
         K16T00H KC2016 10 02.98146 00 01 38.10 +19 03 00.1          17.8 VqET015958
         K16T00H KC2016 10 02.98668 00 01 07.55 +19 06 10.6          17.7 VqET015958
         K16T00H KC2016 10 03.03236523 56 30.02 +19 29 17.3                qET015J95
         K16T00H KC2016 10 03.03434123 56 17.11 +19 30 35.1                qET015J95
         K16T00H KC2016 10 03.03634323 56 03.97 +19 31 54.0          17.5 RqET015J95
         K16T00H KC2016 10 03.05734 23 53 11.69 +19 48 52.5          17.4 RqET015204
         K16T00H KC2016 10 03.05847 23 53 03.79 +19 49 38.2                qET015204
         K16T00H KC2016 10 03.05962 23 52 55.71 +19 50 24.8                qET015204
         K16T00H KC2016 10 03.06078 23 52 47.60 +19 51 12.2                qET015204
         K16T00H KC2016 10 03.06194 23 52 39.47 +19 51 59.0                qET015204
    
    Observer details:
    204 Schiaparelli Observatory.  Observer L. Buzzi.  0.60-m f/4.64 reflector
        + CCD.
    958 Observatoire de Dax.  Observers P. Dupouy, J. B. de Vanssay.  Measurer
        P. Dupouy.  0.43-m f/2.7 reflector + CCD.
    C77 Bernezzo Observatory.  Observer A. Mantero.  0.25-m f/4 reflector + CCD.
    G96 Mt. Lemmon Survey.  Observer A. D. Grauer.  Measurers E. J. Christensen,
        D. C. Fuls, A. R. Gibbs, A. D. Grauer, J. A. Johnson, R. A. Kowalski,
        S. M. Larson, G. J. Leonard, R. G. Matheny, R. L. Seaman, F. C. Shelly.
        1.5-m reflector + 10K CCD.
    H01 Magdalena Ridge Observatory, Socorro.  Observers W. H. Ryan, E. V. Ryan.
        Measurer W. H. Ryan.  2.4-m f/8.9 reflector + CCD.
    I52 Steward Observatory, Mt. Lemmon Station.  Observer G. J. Leonard.
        Measurers E. J. Christensen, D. C. Fuls, A. R. Gibbs, A. D. Grauer,
        J. A. Johnson, R. A. Kowalski, S. M. Larson, G. J. Leonard, R. G. Matheny,
        R. L. Seaman, F. C. Shelly.  1.0-m reflector + CCD.
    J69 North Observatory, Clanfield.  Observer D. Briggs.  0.41-m f/4.5 Newtonian
        reflector + CCD.
    J95 Great Shefford.  Observer P. Birtwhistle.  0.40-m f/6.0 Schmidt-Cassegrain
        + CCD.
    L04 ROASTERR-1 Observatory, Cluj-Napoca.  Observer L. Hudin.  0.3-m f/5.0
        reflector + CCD.
    
    Orbital elements:
    2016 TH                                                  Earth MOID = 0.0008 AU
    Epoch 2016 July 31.0 TT = JDT 2457600.5                 MPC
    M 223.30831              (2000.0)            P               Q
    n   0.97531256     Peri.  281.57602     -0.41422500     -0.91016490
    a   1.0070248      Node   192.89692     +0.84220321     -0.38154392
    e   0.2619946      Incl.    1.07403     +0.34512520     -0.16131986
    P   1.01           H   29.4           G   0.15           U   6
    Residuals in seconds of arc
    161002 G96  0.7-  0.5-    161002 G96  0.0   0.2-    161002 J69 (3.6-  1.1+)
    161002 G96  0.7-  0.0     161002 G96  0.3-  0.4-    161002 C77  1.0-  0.3+
    161002 G96  0.4-  0.2-    161002 G96  0.6-  0.1-    161002 J69 (3.7-  1.0+)
    161002 G96  0.7-  0.3-    161002 G96  0.3-  0.4-    161002 J69 (3.6-  1.2+)
    161002 G96  0.2-  0.3-    161002 G96  0.5-  0.3-    161002 958  1.8-  0.1+
    161002 G96  0.4-  0.1-    161002 G96  0.5-  0.3-    161002 958 (2.6-  0.1+)
    161002 G96  0.3-  0.2-    161002 G96  0.8+  0.6-    161002 958  1.3-  0.4+
    161002 G96 (3.5+  1.9-)   161002 L04  1.4-  0.5+    161003 J95  0.1-  0.4-
    161002 H01  0.4-  0.3-    161002 L04  0.8-  0.2+    161003 J95  0.1-  0.3-
    161002 H01  0.5-  0.2-    161002 L04  0.4-  0.8-    161003 J95  0.1-  0.4-
    161002 I52  0.4-  0.0     161002 J95  0.4-  0.5-    161003 204  0.4-  0.3-
    161002 I52  0.0   0.0     161002 J95  0.2-  0.5-    161003 204  0.5-  0.2-
    161002 I52  0.1-  0.2-    161002 J95  0.2-  0.5-    161003 204  1.0-  0.1-
    161002 I52  0.2-  0.1+    161002 C77  0.1-  0.2-    161003 204  0.5-  0.2+
    161002 H01  0.5-  0.2-    161002 J69 (3.1-  1.1+)   161003 204  0.1-  0.1-
    161002 H01  0.6-  0.1-    161002 C77  0.6-  0.4-
    
    Ephemeris:
    2016 TH                  a,e,i = 1.01, 0.26, 1                   q = 0.7432
    Date    TT    R. A. (2000) Decl.     Delta      r     Elong.  Phase     V
    2016 09 03    00 50 51.2 +09 51 51   0.1403  1.1265   145.0    30.9    26.7
    ...
    2016 09 18    00 55 48.3 +11 02 47   0.06863 1.0686   157.7    20.9    24.8
    ...
    2016 09 26    00 54 31.2 +11 44 41   0.03319 1.0347   165.0    14.5    22.9
    ...
    2016 10 02    00 35 36.5 +14 42 38   0.0073481.0081   168.8    11.1    19.4
    2016 10 03    00 00 19.0 +19 33 20   0.0031131.0036   162.1    17.9    17.8
    2016 10 04    14 31 45.6 +04 11 01   0.0016120.9989    29.1   150.8    24.0
    ...
    2016 10 10    12 45 29.5 -13 14 41   0.02719 0.9716     7.8   172.0
    ...
    2016 10 18    12 42 13.8 -13 37 09   0.06252 0.9354    12.8   166.3
    ...
    2016 11 02    12 47 15.3 -13 34 20   0.1363  0.8704    24.8   151.4    33.5
    
    A. U. Tomatic                (C) Copyright 2016 MPC           M.P.E.C. 2016-T15
    

    Read MPEC 2016-T14 Read MPEC 2016-T16


    MPEC number:

    Enter an MPEC number in one of the following forms:

    • 1997-B01 (the full form)
    • J97B01 (the packed version of the full form)
    • B01 (the abbreviated form)